Zurück zum Katalog

STARLINK-36732

AktivKommunikationSSO
NORAD 67813·PAYLOAD·🇺🇸 United States

Gestartet Feb 15, 2026 von Vandenberg Space Force Base

Loading…

Nächste Überflüge (nächste 24 Stunden)

TLE

AktuellSource: CelesTrak SupGP

Epoche: Sep 14, 2026, 22:47 UTC

1 67813C 26032S   26257.94979167  .00075627  00000+0  23480-2 0  2574
2 67813  97.2856  84.4733 0001604  92.4872  39.0767 15.33395091    18

Verfolge STARLINK-36732 in Echtzeit mit AllMySat

Download on the App Store